Regional Weather Roundup
Issued by NWS Sioux Falls, SD

Home | Current Version | Previous Version | Text Only | Print | Product List | Glossary On
Versions: 1 2 3 4 5 6 7 8 9 10 11 12 13 14 15 16 17 18 19 20 21 22 23 24 25 26 27 28 29 30 31 32 33 34 35 36 37 38 39 40 41 42 43 44 45 46 47 48 49 50
000
ASUS43 KFSD 210010
RWRFSD

WEATHER ROUNDUP FOR SE SOUTH DAKOTA/SW MINNESOTA/NW IOWA
NATIONAL WEATHER SERVICE SIOUX FALLS SD
700 PM CDT FRI APR 20 2018

NOTE: "FAIR" INDICATES FEW OR NO CLOUDS BELOW 12,000 FEET WITH NO
SIGNIFICANT WEATHER AND OR OBSTRUCTIONS TO VISIBILITY.


SDZ038>040-050-052>070-210100-
SOUTHEAST SOUTH DAKOTA

CITY           SKY/WX    TMP DP  RH WIND       PRES   REMARKS
BROOKINGS      PTSUNNY   46  40  79 SE10      30.37F
CHAMBERLAIN    CLOUDY    47  42  80 E6        30.32R
6HR MIN TEMP:  46; 6HR MAX TEMP:  50;

HURON          CLOUDY    47  38  71 SE7       30.34F
6HR MIN TEMP:  43; 6HR MAX TEMP:  49;

MADISON        FAIR      41  41 100 E10       30.36F
MITCHELL       CLOUDY    42  37  82 E5        30.35S
6HR MIN TEMP:  42; 6HR MAX TEMP:  45;

SIOUX FALLS    CLOUDY    46  36  68 E9        30.36F
6HR MIN TEMP:  46; 6HR MAX TEMP:  49;

WINNER         CLOUDY    45  35  68 E7        30.29R
YANKTON        CLOUDY    53  38  56 E5        30.32F
$$

MNZ071-072-080-081-089-090-097-098-210100-
SOUTHWEST MINNESOTA

CITY           SKY/WX    TMP DP  RH WIND       PRES   REMARKS
FAIRMONT       CLOUDY    39  29  67 NE5       30.43S
JACKSON        CLOUDY    36  30  80 E6        30.42S
LUVERNE        CLOUDY    41  36  81 E6        30.38F
MARSHALL       PTSUNNY   39  32  76 SE6       30.42S
6HR MIN TEMP:  39; 6HR MAX TEMP:  43;

MONTEVIDEO     CLOUDY    43  32  65 S8        30.43R
PIPESTONE      CLOUDY   N/A N/A N/A SE6       30.38F
REDWOOD FALLS  CLOUDY    39  32  76 SE7       30.43R
TRACY          MOSUNNY   39  33  81 SE3       30.41S
WINDOM         MOSUNNY   37  21  52 CALM      30.42S
WORTHINGTON    CLOUDY    37  33  85 E6        30.41S
$$

IAZ001>003-012>014-020>022-031-032-NEZ013-014-SDZ071-210100-
NORTHWEST IOWA

CITY           SKY/WX    TMP DP  RH WIND       PRES   REMARKS
CHEROKEE       CLOUDY    42  35  77 E12       30.37F
DENISON        CLOUDY    55  30  38 E6        30.35R
ESTHERVILLE    MOSUNNY   35  30  82 NE5       30.41R
LE MARS        CLOUDY    48  39  71 NE14      30.35S
ORANGE CITY    CLOUDY    45  39  81 E9        30.36F
SHELDON        CLOUDY    43  39  87 E10       30.36F
SIOUX CITY     CLOUDY    55  33  43 SE6       30.32F
6HR MIN TEMP:  52; 6HR MAX TEMP:  60;

SPENCER        MOSUNNY   38  32  79 NE8       30.40S
6HR MIN TEMP:  38; 6HR MAX TEMP:  43;

STORM LAKE     CLOUDY    39  36  87 NE12      30.36F
$$

ABBREVIATIONS USED IN REMARKS
   TC - TEMPERATURE IN CELSIUS
  WCI - WIND CHILL INDEX
   HX - HEAT INDEX
  VSB - VISIBILITY





USA.gov is the U.S. government's official web portal to all federal, state and local government web resources and services.